{"data":{"norad_id":33320,"epoch":"2026-09-20T05:35:09.220704Z","epoch_age_seconds":37347,"freshness":"FRESH","line1":"1 33320U 08041A   26263.23274561  .00000382  00000+0  51723-4 0  9997","line2":"2 33320  97.6796 245.4581 0018554 181.7865 178.3287 14.84166398972504","mean_motion":14.84166398,"eccentricity":0.0018554,"inclination_deg":97.6796,"raan_deg":245.4581,"arg_perigee_deg":181.7865,"mean_anomaly_deg":178.3287,"bstar":5.1723e-5,"rev_number":97250,"period_min":97.02416130297,"perigee_km":603.22631666326,"apogee_km":629.18091582201,"semimajor_km":6994.3406162426,"source":"CELESTRAK","updated_at":"2026-09-20T09:00:34.549829Z"}}